,,,PA_Meas_PMT16A,,PR_Meas_QMR101_102,,RH_Meas_QMH101,,SR_Meas_QMS101,,TA_Meas_QMH101,,GenWind,,GenWind,
date,time,status,PA,status,PR,status,RH,status,SR,status,TA,status,DirAvg,status,SpdAvg,
2009-06-06, 00:00:04,VALID,1000.32,VALID,0,VALID,92.6236,VALID,0,VALID,23.9549,VALID,72,VALID,0.933203,
2009-06-06, 00:01:04,VALID,1000.33,VALID,0,VALID,92.5473,VALID,0,VALID,24.0153,VALID,72,VALID,0.723828,
2009-06-06, 00:02:04,VALID,1000.28,VALID,0,VALID,92.4634,VALID,0,VALID,24.0153,VALID,72,VALID,0.575781,
2009-06-06, 00:03:04,VALID,1000.27,VALID,0,VALID,92.3947,VALID,0,VALID,24.0543,VALID,72,VALID,0.564062,
2009-06-06, 00:04:04,VALID,1000.28,VALID,0,VALID,92.3566,VALID,0,VALID,24.0543,VALID,72,VALID,0.507813,
2009-06-06, 00:05:04,VALID,1000.29,VALID,0,VALID,92.326,VALID,0,VALID,24.0543,VALID,72,VALID,0.367578,
2009-06-06, 00:06:04,VALID,1000.27,VALID,0,VALID,92.2726,VALID,0,VALID,24.0543,VALID,72,VALID,0.214453,
2009-06-06, 00:07:04,VALID,1000.31,VALID,0,VALID,92.3337,VALID,0,VALID,24.0329,VALID,72,VALID,0,
2009-06-06, 00:08:04,VALID,1000.28,VALID,0,VALID,92.3794,VALID,0,VALID,24.0329,VALID,72,VALID,0,
2009-06-06, 00:09:04,VALID,1000.29,VALID,0,VALID,92.3184,VALID,0,VALID,24.0153,VALID,72,VALID,0,
2009-06-06, 00:10:04,VALID,1000.27,VALID,0,VALID,92.3108,VALID,0,VALID,24.0348,VALID,72,VALID,0,
2009-06-06, 00:11:04,VALID,1000.26,VALID,0,VALID,92.2879,VALID,0,VALID,24.0153,VALID,72,VALID,0,
2009-06-06, 00:12:04,VALID,1000.26,VALID,0,VALID,92.3642,VALID,0,VALID,23.9957,VALID,72,VALID,0,
2009-06-06, 00:13:04,VALID,1000.25,VALID,0,VALID,92.4023,VALID,0,VALID,23.9957,VALID,72,VALID,0,
2009-06-06, 00:14:04,VALID,1000.25,VALID,0,VALID,92.3718,VALID,0,VALID,23.9762,VALID,72,VALID,0,
2009-06-06, 00:15:04,VALID,1000.22,VALID,0,VALID,92.3871,VALID,0,VALID,23.9762,VALID,72,VALID,0,
2009-06-06, 00:16:04,VALID,1000.17,VALID,0,VALID,92.4176,VALID,0,VALID,23.9549,VALID,72,VALID,0,
2009-06-06, 00:17:04,VALID,1000.2,VALID,0,VALID,92.4252,VALID,0,VALID,23.9762,VALID,72,VALID,0,
2009-06-06, 00:18:04,VALID,1000.16,VALID,0,VALID,92.41,VALID,0,VALID,23.9762,VALID,72,VALID,0,
2009-06-06, 00:19:04,VALID,1000.17,VALID,0,VALID,92.4252,VALID,0,VALID,23.9567,VALID,72,VALID,0,
2009-06-06, 00:20:04,VALID,1000.15,VALID,0,VALID,92.4252,VALID,0,VALID,23.9567,VALID,72,VALID,0,
2009-06-06, 00:21:04,VALID,1000.13,VALID,0,VALID,92.4328,VALID,0,VALID,23.9567,VALID,72,VALID,0,
2009-06-06, 00:22:04,VALID,1000.14,VALID,0,VALID,92.4634,VALID,0,VALID,23.9354,VALID,72,VALID,0,
2009-06-06, 00:23:04,VALID,1000.14,VALID,0,VALID,92.6083,VALID,0,VALID,23.9567,VALID,72,VALID,0,
2009-06-06, 00:24:04,VALID,1000.12,VALID,0,VALID,92.738,VALID,0,VALID,23.9762,VALID,72,VALID,0,
2009-06-06, 00:25:04,VALID,1000.12,VALID,0,VALID,92.7991,VALID,0,VALID,23.9744,VALID,72,VALID,0,
2009-06-06, 00:26:04,VALID,1000.08,VALID,0,VALID,92.8448,VALID,0,VALID,23.9939,VALID,72,VALID,0.176953,
2009-06-06, 00:27:04,VALID,1000.07,VALID,0,VALID,92.8601,VALID,0,VALID,24.0348,VALID,83,VALID,0.165234,
2009-06-06, 00:28:04,VALID,1000.06,VALID,0,VALID,92.2726,VALID,0,VALID,23.9957,VALID,199,VALID,0.653906,
2009-06-06, 00:29:04,VALID,1000.03,VALID,0,VALID,92.2345,VALID,0,VALID,24.0738,VALID,211,VALID,0.502734,
2009-06-06, 00:30:04,VALID,1000.02,VALID,0,VALID,91.9903,VALID,0,VALID,24.1519,VALID,213,VALID,0.190625,
2009-06-06, 00:31:04,VALID,999.988,VALID,0,VALID,91.792,VALID,0,VALID,24.1519,VALID,213,VALID,0.00429688,
2009-06-06, 00:32:04,VALID,999.981,VALID,0,VALID,91.5936,VALID,0,VALID,24.15,VALID,112,VALID,0.567187,
2009-06-06, 00:33:04,VALID,1000.01,VALID,0,VALID,91.502,VALID,0,VALID,24.1519,VALID,56,VALID,0.45625,
2009-06-06, 00:34:04,VALID,999.976,VALID,0,VALID,91.6088,VALID,0,VALID,24.111,VALID,45,VALID,0.755469,
2009-06-06, 00:35:04,VALID,999.972,VALID,0,VALID,91.4105,VALID,0,VALID,24.0933,VALID,45,VALID,0.714453,
2009-06-06, 00:36:04,VALID,1000.02,VALID,0,VALID,91.5783,VALID,0,VALID,24.0738,VALID,45,VALID,0.607422,
2009-06-06, 00:37:04,VALID,1000.06,VALID,0,VALID,91.6623,VALID,0,VALID,24.0543,VALID,44,VALID,0.589844,
2009-06-06, 00:38:04,VALID,1000.05,VALID,0,VALID,91.7538,VALID,0,VALID,24.0153,VALID,44,VALID,0.319141,
2009-06-06, 00:39:04,VALID,1000.07,VALID,0,VALID,91.9598,VALID,0,VALID,23.9957,VALID,44,VALID,0.308203,
2009-06-06, 00:40:04,VALID,1000.03,VALID,0,VALID,92.0743,VALID,0,VALID,23.9549,VALID,44,VALID,0.153906,
2009-06-06, 00:41:04,VALID,1000.01,VALID,0,VALID,92.1811,VALID,0,VALID,23.8963,VALID,44,VALID,0.278906,
2009-06-06, 00:42:04,VALID,999.969,VALID,0,VALID,92.326,VALID,0,VALID,23.8982,VALID,104,VALID,0.871094,
2009-06-06, 00:43:04,VALID,999.964,VALID,0,VALID,92.3489,VALID,0,VALID,23.9177,VALID,105,VALID,0.968359,
2009-06-06, 00:44:04,VALID,999.944,VALID,0,VALID,92.1811,VALID,0,VALID,23.9159,VALID,105,VALID,0.973828,
2009-06-06, 00:45:04,VALID,999.951,VALID,0,VALID,91.9445,VALID,0,VALID,23.9567,VALID,105,VALID,0.803516,
2009-06-06, 00:46:04,VALID,999.92,VALID,0,VALID,91.8225,VALID,0,VALID,23.9762,VALID,105,VALID,0.685547,
2009-06-06, 00:47:04,VALID,999.916,VALID,0,VALID,91.998,VALID,0,VALID,23.9939,VALID,96,VALID,0.669531,
2009-06-06, 00:48:04,VALID,999.919,VALID,0,VALID,92.0666,VALID,0,VALID,24.0348,VALID,78,VALID,0.792188,
2009-06-06, 00:49:04,VALID,999.898,VALID,0,VALID,92.0819,VALID,0,VALID,24.0153,VALID,63,VALID,0.828906,
2009-06-06, 00:50:04,VALID,999.909,VALID,0,VALID,91.998,VALID,0,VALID,23.9957,VALID,58,VALID,0.925391,
2009-06-06, 00:51:04,VALID,999.873,VALID,0,VALID,91.9522,VALID,0,VALID,23.9744,VALID,42,VALID,1.00742,
2009-06-06, 00:52:04,VALID,999.857,VALID,0,VALID,91.9369,VALID,0,VALID,23.9762,VALID,41,VALID,1.03828,
2009-06-06, 00:53:04,VALID,999.81,VALID,0,VALID,92.0285,VALID,0,VALID,23.9762,VALID,41,VALID,0.951172,
2009-06-06, 00:54:04,VALID,999.751,VALID,0,VALID,92.0285,VALID,0,VALID,23.9567,VALID,38,VALID,0.832812,
2009-06-06, 00:55:04,VALID,999.721,VALID,0,VALID,92.0437,VALID,0,VALID,23.9372,VALID,36,VALID,0.738281,
2009-06-06, 00:56:04,VALID,999.724,VALID,0,VALID,92.1506,VALID,0,VALID,23.8982,VALID,14,VALID,0.838281,
2009-06-06, 00:57:04,VALID,999.723,VALID,0,VALID,92.265,VALID,0,VALID,23.8573,VALID,348,VALID,0.763281,
2009-06-06, 00:58:04,VALID,999.74,VALID,0,VALID,92.471,VALID,0,VALID,23.8591,VALID,348,VALID,0.633594,
2009-06-06, 00:59:04,VALID,999.73,VALID,0,VALID,92.6312,VALID,0,VALID,23.8396,VALID,339,VALID,0.587891,
2009-06-06, 01:00:04,VALID,999.739,VALID,0,VALID,92.8525,VALID,0,VALID,23.8396,VALID,292,VALID,0.626562,
2009-06-06, 01:01:04,VALID,999.734,VALID,0,VALID,92.9517,VALID,0,VALID,23.8396,VALID,277,VALID,0.751562,
2009-06-06, 01:02:04,VALID,999.705,VALID,0,VALID,92.9974,VALID,0,VALID,23.8396,VALID,275,VALID,0.624219,
2009-06-06, 01:03:04,VALID,999.672,VALID,0,VALID,93.0203,VALID,0,VALID,23.8183,VALID,275,VALID,0.488281,
2009-06-06, 01:04:04,VALID,999.674,VALID,0,VALID,93.0661,VALID,0,VALID,23.8201,VALID,275,VALID,0.402344,
2009-06-06, 01:05:04,VALID,999.638,VALID,0,VALID,93.1043,VALID,0,VALID,23.8396,VALID,267,VALID,0.714453,
2009-06-06, 01:06:04,VALID,999.639,VALID,0,VALID,93.1119,VALID,0,VALID,23.8396,VALID,225,VALID,0.620313,
2009-06-06, 01:07:04,VALID,999.641,VALID,0,VALID,93.1195,VALID,0,VALID,23.8183,VALID,232,VALID,0.605859,
2009-06-06, 01:08:04,VALID,999.674,VALID,0,VALID,93.1424,VALID,0,VALID,23.8396,VALID,242,VALID,0.820313,
2009-06-06, 01:09:04,VALID,999.62,VALID,0,VALID,93.1271,VALID,0,VALID,23.8591,VALID,234,VALID,0.930469,
2009-06-06, 01:10:04,VALID,999.615,VALID,0,VALID,93.1577,VALID,0,VALID,23.8378,VALID,241,VALID,1.62578,
2009-06-06, 01:11:04,VALID,999.616,VALID,0,VALID,93.2034,VALID,0,VALID,23.8573,VALID,238,VALID,1.37461,
2009-06-06, 01:12:04,VALID,999.602,VALID,0,VALID,93.1805,VALID,0,VALID,23.8573,VALID,239,VALID,1.34063,
2009-06-06, 01:13:04,VALID,999.597,VALID,0,VALID,93.1195,VALID,0,VALID,23.8786,VALID,242,VALID,1.01523,
2009-06-06, 01:14:04,VALID,999.542,VALID,0,VALID,93.0356,VALID,0,VALID,23.8573,VALID,244,VALID,1.03828,
2009-06-06, 01:15:04,VALID,999.536,VALID,0,VALID,92.9364,VALID,0,VALID,23.8768,VALID,261,VALID,0.778906,
2009-06-06, 01:16:04,VALID,999.506,VALID,0,VALID,92.8296,VALID,0,VALID,23.8768,VALID,266,VALID,0.644141,
2009-06-06, 01:17:04,VALID,999.514,VALID,0,VALID,92.6999,VALID,0,VALID,23.8573,VALID,266,VALID,0.628125,
2009-06-06, 01:18:04,VALID,999.447,VALID,0,VALID,92.5015,VALID,0,VALID,23.8378,VALID,300,VALID,0.905078,
2009-06-06, 01:19:04,VALID,999.471,VALID,0,VALID,92.5168,VALID,0,VALID,23.8201,VALID,289,VALID,0.666797,
2009-06-06, 01:20:04,VALID,999.439,VALID,0,VALID,92.5702,VALID,0,VALID,23.7579,VALID,302,VALID,0.969922,
2009-06-06, 01:21:04,VALID,999.443,VALID,0,VALID,92.677,VALID,0,VALID,23.7402,VALID,320,VALID,0.792188,
2009-06-06, 01:22:04,VALID,999.421,VALID,0,VALID,92.7914,VALID,0,VALID,23.7207,VALID,321,VALID,0.575781,
2009-06-06, 01:23:04,VALID,999.438,VALID,0,VALID,92.8372,VALID,0.112286,VALID,23.6817,VALID,321,VALID,0.662891,
2009-06-06, 01:24:04,VALID,999.424,VALID,0,VALID,92.883,VALID,0,VALID,23.6427,VALID,321,VALID,0.489453,
2009-06-06, 01:25:04,VALID,999.415,VALID,0,VALID,92.9517,VALID,0,VALID,23.5841,VALID,327,VALID,0.551953,
2009-06-06, 01:26:04,VALID,999.389,VALID,0,VALID,93.1577,VALID,0,VALID,23.5841,VALID,332,VALID,0.583203,
2009-06-06, 01:27:04,VALID,999.407,VALID,0,VALID,93.2645,VALID,0,VALID,23.5451,VALID,333,VALID,0.621094,
2009-06-06, 01:28:04,VALID,999.418,VALID,0,VALID,93.3179,VALID,0,VALID,23.5256,VALID,333,VALID,0.645703,
2009-06-06, 01:29:04,VALID,999.412,VALID,0,VALID,93.3255,VALID,0,VALID,23.4671,VALID,24,VALID,0.913281,
2009-06-06, 01:30:04,VALID,999.382,VALID,0,VALID,93.4171,VALID,0,VALID,23.4884,VALID,45,VALID,0.991016,
2009-06-06, 01:31:04,VALID,999.415,VALID,0,VALID,93.3484,VALID,0,VALID,23.4475,VALID,42,VALID,1.1168,
2009-06-06, 01:32:04,VALID,999.379,VALID,0,VALID,93.1958,VALID,0,VALID,23.389,VALID,42,VALID,0.9875,
2009-06-06, 01:33:04,VALID,999.385,VALID,0,VALID,92.9974,VALID,0,VALID,23.35,VALID,41,VALID,0.945313,
2009-06-06, 01:34:04,VALID,999.331,VALID,0,VALID,93.1271,VALID,0,VALID,23.311,VALID,36,VALID,1.25586,
2009-06-06, 01:35:04,VALID,999.347,VALID,0,VALID,93.1805,VALID,0,VALID,23.2719,VALID,32,VALID,1.17227,
2009-06-06, 01:36:04,VALID,999.345,VALID,0,VALID,93.2797,VALID,0,VALID,23.2719,VALID,43,VALID,1.25664,
2009-06-06, 01:37:04,VALID,999.308,VALID,0,VALID,93.4705,VALID,0,VALID,23.2524,VALID,37,VALID,1.31094,
2009-06-06, 01:38:04,VALID,999.351,VALID,0,VALID,93.5849,VALID,0,VALID,23.2719,VALID,41,VALID,1.01445,
2009-06-06, 01:39:04,VALID,999.363,VALID,0,VALID,93.5697,VALID,0,VALID,23.2524,VALID,38,VALID,0.810938,
2009-06-06, 01:40:04,VALID,999.369,VALID,0,VALID,93.5849,VALID,0,VALID,23.2542,VALID,31,VALID,0.629687,
2009-06-06, 01:41:04,VALID,999.42,VALID,0,VALID,93.6231,VALID,0,VALID,23.2329,VALID,24,VALID,0.742188,
2009-06-06, 01:42:04,VALID,999.419,VALID,0,VALID,93.646,VALID,0,VALID,23.2134,VALID,14,VALID,0.829687,
2009-06-06, 01:43:04,VALID,999.457,VALID,0,VALID,93.7223,VALID,0,VALID,23.1939,VALID,12,VALID,1.01211,
2009-06-06, 01:44:04,VALID,999.462,VALID,0,VALID,93.8138,VALID,0,VALID,23.1939,VALID,6,VALID,1.09375,
2009-06-06, 01:45:04,VALID,999.485,VALID,0,VALID,93.9054,VALID,0,VALID,23.2152,VALID,354,VALID,0.821094,
2009-06-06, 01:46:04,VALID,999.488,VALID,0,VALID,93.974,VALID,0,VALID,23.2134,VALID,342,VALID,0.486328,
2009-06-06, 01:47:04,VALID,999.478,VALID,0,VALID,93.9283,VALID,0,VALID,23.2134,VALID,342,VALID,0.851953,
2009-06-06, 01:48:04,VALID,999.49,VALID,0,VALID,93.9283,VALID,0,VALID,23.2134,VALID,342,VALID,0.489453,
2009-06-06, 01:49:04,VALID,999.499,VALID,0,VALID,93.8672,VALID,0,VALID,23.1744,VALID,342,VALID,0.707422,
2009-06-06, 01:50:04,VALID,999.537,VALID,0,VALID,93.8672,VALID,0,VALID,23.1744,VALID,356,VALID,0.700391,
2009-06-06, 01:51:04,VALID,999.495,VALID,0,VALID,93.7528,VALID,0,VALID,23.1549,VALID,17,VALID,0.407813,
2009-06-06, 01:52:04,VALID,999.491,VALID,0,VALID,93.768,VALID,0,VALID,23.1159,VALID,17,VALID,0.189453,
2009-06-06, 01:53:04,VALID,999.467,VALID,0,VALID,93.7604,VALID,0,VALID,23.0964,VALID,17,VALID,0.317187,
2009-06-06, 01:54:04,VALID,999.472,VALID,0,VALID,93.7909,VALID,0,VALID,23.0964,VALID,17,VALID,0.203125,
2009-06-06, 01:55:04,VALID,999.477,VALID,0,VALID,93.8214,VALID,0,VALID,23.0769,VALID,17,VALID,0,
2009-06-06, 01:56:04,VALID,999.506,VALID,0,VALID,93.8748,VALID,0,VALID,23.0769,VALID,17,VALID,0,
2009-06-06, 01:57:04,VALID,999.507,VALID,0,VALID,93.9817,VALID,0,VALID,23.0769,VALID,17,VALID,0,
2009-06-06, 01:58:04,VALID,999.493,VALID,0,VALID,94.0885,VALID,0,VALID,23.0964,VALID,17,VALID,0.207031,
2009-06-06, 01:59:04,VALID,999.49,VALID,0,VALID,94.1648,VALID,0,VALID,23.0946,VALID,17,VALID,0.520703,
2009-06-06, 02:00:04,VALID,999.457,VALID,0,VALID,94.1419,VALID,0,VALID,23.1354,VALID,60,VALID,0.598437,
2009-06-06, 02:01:04,VALID,999.452,VALID,0,VALID,94.119,VALID,0,VALID,23.1549,VALID,79,VALID,0.847266,
2009-06-06, 02:02:04,VALID,999.437,VALID,0,VALID,94.058,VALID,0,VALID,23.1354,VALID,80,VALID,0.840234,
2009-06-06, 02:03:04,VALID,999.452,VALID,0,VALID,93.9893,VALID,0,VALID,23.1354,VALID,89,VALID,0.813281,
2009-06-06, 02:04:04,VALID,999.48,VALID,0,VALID,94.0198,VALID,0,VALID,23.1354,VALID,90,VALID,0.771484,
2009-06-06, 02:05:04,VALID,999.474,VALID,0,VALID,93.8901,VALID,0,VALID,23.1566,VALID,97,VALID,0.701953,
2009-06-06, 02:06:04,VALID,999.51,VALID,0,VALID,93.8825,VALID,0,VALID,23.1159,VALID,106,VALID,0.817969,
2009-06-06, 02:07:04,VALID,999.534,VALID,0,VALID,93.7757,VALID,0,VALID,23.1159,VALID,106,VALID,0.670313,
2009-06-06, 02:08:04,VALID,999.567,VALID,0,VALID,93.7985,VALID,0,VALID,23.0964,VALID,106,VALID,0.640625,
2009-06-06, 02:09:04,VALID,999.578,VALID,0,VALID,93.8825,VALID,0,VALID,23.1176,VALID,116,VALID,0.707422,
2009-06-06, 02:10:04,VALID,999.571,VALID,0,VALID,93.9511,VALID,0,VALID,23.1159,VALID,117,VALID,0.671875,
2009-06-06, 02:11:04,VALID,999.538,VALID,0,VALID,93.9054,VALID,0,VALID,23.1159,VALID,97,VALID,0.793359,
2009-06-06, 02:12:04,VALID,999.537,VALID,0,VALID,93.9359,VALID,0,VALID,23.1371,VALID,89,VALID,1.03203,
2009-06-06, 02:13:04,VALID,999.553,VALID,0,VALID,93.8291,VALID,0,VALID,23.0964,VALID,102,VALID,1.09297,
2009-06-06, 02:14:04,VALID,999.55,VALID,0,VALID,94.0198,VALID,0,VALID,23.1159,VALID,124,VALID,1.04844,
2009-06-06, 02:15:04,VALID,999.565,VALID,0,VALID,94.0961,VALID,0.112286,VALID,23.1549,VALID,114,VALID,1.05313,
2009-06-06, 02:16:04,VALID,999.534,VALID,0,VALID,94.0122,VALID,0,VALID,23.1549,VALID,111,VALID,0.907812,
2009-06-06, 02:17:04,VALID,999.542,VALID,0,VALID,93.9817,VALID,0,VALID,23.1371,VALID,98,VALID,1.07461,
2009-06-06, 02:18:04,VALID,999.518,VALID,0,VALID,94.0122,VALID,0,VALID,23.1354,VALID,67,VALID,1.59961,
2009-06-06, 02:19:04,VALID,999.44,VALID,0,VALID,93.8367,VALID,0,VALID,23.0964,VALID,40,VALID,2.04766,
2009-06-06, 02:20:04,VALID,999.476,VALID,0,VALID,93.6536,VALID,0,VALID,23.0378,VALID,34,VALID,2.09531,
2009-06-06, 02:21:04,VALID,999.537,VALID,0,VALID,93.562,VALID,0,VALID,23.0006,VALID,93,VALID,0.895703,
2009-06-06, 02:22:04,VALID,999.531,VALID,0,VALID,93.6994,VALID,0,VALID,22.9811,VALID,78,VALID,0.886719,
2009-06-06, 02:23:04,VALID,999.484,VALID,0,VALID,93.707,VALID,0,VALID,22.9598,VALID,48,VALID,2.09023,
2009-06-06, 02:24:04,VALID,999.53,VALID,0,VALID,93.7985,VALID,0,VALID,22.9598,VALID,46,VALID,1.85195,
2009-06-06, 02:25:04,VALID,999.549,VALID,0,VALID,93.8291,VALID,0,VALID,22.9598,VALID,80,VALID,0.836719,
2009-06-06, 02:26:04,VALID,999.553,VALID,0,VALID,93.8825,VALID,0,VALID,22.9403,VALID,68,VALID,0.996094,
2009-06-06, 02:27:04,VALID,999.512,VALID,0,VALID,93.8748,VALID,0,VALID,22.9403,VALID,65,VALID,0.596094,
2009-06-06, 02:28:04,VALID,999.551,VALID,0,VALID,93.8214,VALID,0,VALID,22.9208,VALID,18,VALID,0.467578,
2009-06-06, 02:29:04,VALID,999.547,VALID,0,VALID,93.8367,VALID,0,VALID,22.942,VALID,17,VALID,0.0261719,
2009-06-06, 02:30:04,VALID,999.537,VALID,0,VALID,93.9054,VALID,0,VALID,22.9403,VALID,6,VALID,0.271484,
2009-06-06, 02:31:04,VALID,999.519,VALID,0,VALID,93.913,VALID,0,VALID,22.942,VALID,353,VALID,0.561719,
2009-06-06, 02:32:04,VALID,999.488,VALID,0,VALID,93.9588,VALID,0,VALID,22.9615,VALID,339,VALID,0.911719,
2009-06-06, 02:33:04,VALID,999.454,VALID,0,VALID,93.974,VALID,0,VALID,22.9598,VALID,318,VALID,1.23477,
2009-06-06, 02:34:04,VALID,999.482,VALID,0,VALID,93.9511,VALID,0,VALID,22.9793,VALID,320,VALID,0.948047,
2009-06-06, 02:35:04,VALID,999.466,VALID,0,VALID,93.9588,VALID,0,VALID,23.0006,VALID,293,VALID,0.941406,
2009-06-06, 02:36:04,VALID,999.447,VALID,0,VALID,93.9435,VALID,0,VALID,23.0006,VALID,289,VALID,0.985156,
2009-06-06, 02:37:04,VALID,999.441,VALID,0,VALID,93.9206,VALID,0,VALID,22.9988,VALID,308,VALID,0.809375,
2009-06-06, 02:38:04,VALID,999.454,VALID,0,VALID,93.8901,VALID,0,VALID,22.9988,VALID,333,VALID,0.645703,
2009-06-06, 02:39:04,VALID,999.482,VALID,0,VALID,93.8596,VALID,0,VALID,23.0006,VALID,333,VALID,0.397266,
2009-06-06, 02:40:04,VALID,999.494,VALID,0,VALID,93.768,VALID,0,VALID,22.9793,VALID,7,VALID,0.859375,
2009-06-06, 02:41:04,VALID,999.504,VALID,0,VALID,93.6765,VALID,0.112286,VALID,22.9403,VALID,30,VALID,1.17266,
2009-06-06, 02:42:04,VALID,999.505,VALID,0,VALID,93.7451,VALID,0,VALID,22.9225,VALID,26,VALID,1.63672,
2009-06-06, 02:43:04,VALID,999.535,VALID,0,VALID,93.8748,VALID,0,VALID,22.9225,VALID,28,VALID,1.12695,
2009-06-06, 02:44:04,VALID,999.545,VALID,0,VALID,93.974,VALID,0,VALID,22.9208,VALID,16,VALID,1.33828,
2009-06-06, 02:45:04,VALID,999.535,VALID,0,VALID,93.9664,VALID,0,VALID,22.9208,VALID,26,VALID,1.28359,
2009-06-06, 02:46:04,VALID,999.534,VALID,0,VALID,93.8367,VALID,0,VALID,22.9208,VALID,30,VALID,0.789063,
2009-06-06, 02:47:04,VALID,999.573,VALID,0,VALID,93.7299,VALID,0,VALID,22.9013,VALID,30,VALID,0.49375,
2009-06-06, 02:48:04,VALID,999.545,VALID,0,VALID,93.6765,VALID,0,VALID,22.903,VALID,30,VALID,0.446875,
2009-06-06, 02:49:04,VALID,999.523,VALID,0,VALID,93.6688,VALID,0,VALID,22.8427,VALID,30,VALID,0.30625,
2009-06-06, 02:50:04,VALID,999.571,VALID,0,VALID,93.6612,VALID,0,VALID,22.8232,VALID,30,VALID,0.528125,
2009-06-06, 02:51:04,VALID,999.532,VALID,0,VALID,93.6612,VALID,0,VALID,22.8037,VALID,30,VALID,0.456641,
2009-06-06, 02:52:04,VALID,999.568,VALID,0,VALID,93.7528,VALID,0,VALID,22.825,VALID,30,VALID,0.545703,
2009-06-06, 02:53:04,VALID,999.54,VALID,0,VALID,93.7833,VALID,0.112286,VALID,22.8037,VALID,30,VALID,0.405859,
2009-06-06, 02:54:04,VALID,999.524,VALID,0,VALID,93.7833,VALID,0.112286,VALID,22.8232,VALID,30,VALID,0.273438,
2009-06-06, 02:55:04,VALID,999.533,VALID,0,VALID,93.7375,VALID,0,VALID,22.7842,VALID,30,VALID,0.249609,
2009-06-06, 02:56:04,VALID,999.508,VALID,0,VALID,93.8672,VALID,0,VALID,22.8037,VALID,30,VALID,0.271875,
2009-06-06, 02:57:04,VALID,999.499,VALID,0,VALID,94.0045,VALID,0,VALID,22.8427,VALID,30,VALID,0.216797,
2009-06-06, 02:58:04,VALID,999.497,VALID,0,VALID,93.9664,VALID,0,VALID,22.8427,VALID,30,VALID,0.0582031,
2009-06-06, 02:59:04,VALID,999.463,VALID,0,VALID,93.9588,VALID,0,VALID,22.8623,VALID,30,VALID,0.137109,
2009-06-06, 03:00:04,VALID,999.461,VALID,0,VALID,93.9664,VALID,0,VALID,22.8818,VALID,30,VALID,0,
2009-06-06, 03:01:04,VALID,999.455,VALID,0,VALID,93.8596,VALID,0,VALID,22.8835,VALID,30,VALID,0.0386719,
2009-06-06, 03:02:04,VALID,999.439,VALID,0,VALID,93.9435,VALID,0,VALID,22.864,VALID,30,VALID,0.223047,
2009-06-06, 03:03:04,VALID,999.452,VALID,0,VALID,93.9817,VALID,0,VALID,22.8835,VALID,30,VALID,0.139453,
2009-06-06, 03:04:04,VALID,999.475,VALID,0,VALID,94.0122,VALID,0,VALID,22.903,VALID,30,VALID,0.246875,
2009-06-06, 03:05:04,VALID,999.472,VALID,0,VALID,94.0045,VALID,0,VALID,22.8818,VALID,30,VALID,0.2375,
2009-06-06, 03:06:04,VALID,999.517,VALID,0,VALID,94.0122,VALID,0,VALID,22.8818,VALID,30,VALID,0.263281,
2009-06-06, 03:07:04,VALID,999.525,VALID,0,VALID,93.9664,VALID,0,VALID,22.9013,VALID,30,VALID,0.595703,
2009-06-06, 03:08:04,VALID,999.489,VALID,0,VALID,93.9588,VALID,0,VALID,22.9013,VALID,30,VALID,0.629687,
2009-06-06, 03:09:04,VALID,999.485,VALID,0,VALID,93.9893,VALID,0,VALID,22.9208,VALID,30,VALID,0.4875,
2009-06-06, 03:10:04,VALID,999.51,VALID,0,VALID,93.8901,VALID,0,VALID,22.8995,VALID,30,VALID,0.418359,
2009-06-06, 03:11:04,VALID,999.473,VALID,0,VALID,93.8291,VALID,0,VALID,22.9208,VALID,30,VALID,0.330859,
2009-06-06, 03:12:04,VALID,999.493,VALID,0,VALID,93.8062,VALID,0,VALID,22.9208,VALID,30,VALID,0.367188,
2009-06-06, 03:13:04,VALID,999.479,VALID,0,VALID,93.7451,VALID,0,VALID,22.8818,VALID,30,VALID,0.634766,
2009-06-06, 03:14:04,VALID,999.497,VALID,0,VALID,93.7833,VALID,0,VALID,22.8818,VALID,30,VALID,0.602734,
2009-06-06, 03:15:04,VALID,999.482,VALID,0,VALID,93.7833,VALID,0,VALID,22.8995,VALID,30,VALID,0.700391,
2009-06-06, 03:16:04,VALID,999.491,VALID,0,VALID,93.7528,VALID,0,VALID,22.9013,VALID,30,VALID,0.491406,
2009-06-06, 03:17:04,VALID,999.484,VALID,0,VALID,93.6612,VALID,0,VALID,22.9013,VALID,30,VALID,0.378125,
2009-06-06, 03:18:04,VALID,999.492,VALID,0,VALID,93.6307,VALID,0,VALID,22.8818,VALID,30,VALID,0.0621094,
2009-06-06, 03:19:04,VALID,999.514,VALID,0,VALID,93.6994,VALID,0,VALID,22.8818,VALID,30,VALID,0.355469,
2009-06-06, 03:20:04,VALID,999.496,VALID,0,VALID,93.7985,VALID,0,VALID,22.9208,VALID,25,VALID,0.552344,
2009-06-06, 03:21:04,VALID,999.491,VALID,0,VALID,93.8596,VALID,0,VALID,22.9403,VALID,18,VALID,0.397266,
2009-06-06, 03:22:04,VALID,999.492,VALID,0,VALID,93.8901,VALID,0,VALID,22.9598,VALID,18,VALID,0.0980469,
2009-06-06, 03:23:04,VALID,999.444,VALID,0,VALID,93.8901,VALID,0,VALID,22.9793,VALID,18,VALID,0.219141,
2009-06-06, 03:24:04,VALID,999.476,VALID,0,VALID,93.8672,VALID,0,VALID,22.9793,VALID,18,VALID,0.432422,
2009-06-06, 03:25:04,VALID,999.448,VALID,0,VALID,93.8596,VALID,0,VALID,23.0006,VALID,12,VALID,0.541797,
2009-06-06, 03:26:04,VALID,999.429,VALID,0,VALID,93.8596,VALID,0,VALID,23.0006,VALID,303,VALID,0.817578,
2009-06-06, 03:27:04,VALID,999.438,VALID,0,VALID,93.8596,VALID,0,VALID,22.9988,VALID,303,VALID,0.519922,
2009-06-06, 03:28:04,VALID,999.446,VALID,0,VALID,93.8748,VALID,0,VALID,22.9988,VALID,303,VALID,0.335547,
2009-06-06, 03:29:04,VALID,999.418,VALID,0,VALID,93.8977,VALID,0,VALID,22.9988,VALID,303,VALID,0.241797,
2009-06-06, 03:30:04,VALID,999.435,VALID,0,VALID,93.852,VALID,0,VALID,23.0006,VALID,303,VALID,0.26875,
2009-06-06, 03:31:04,VALID,999.434,VALID,0,VALID,93.8138,VALID,0.112286,VALID,22.9598,VALID,339,VALID,0.519922,
2009-06-06, 03:32:04,VALID,999.487,VALID,0,VALID,93.8672,VALID,0,VALID,22.9598,VALID,339,VALID,0.494531,
2009-06-06, 03:33:04,VALID,999.49,VALID,0,VALID,93.8596,VALID,0,VALID,22.9208,VALID,339,VALID,0.613281,
2009-06-06, 03:34:04,VALID,999.525,VALID,0,VALID,93.9206,VALID,0,VALID,22.9208,VALID,339,VALID,0.589844,
2009-06-06, 03:35:04,VALID,999.555,VALID,0,VALID,93.9893,VALID,0,VALID,22.942,VALID,339,VALID,0.542969,
2009-06-06, 03:36:04,VALID,999.559,VALID,0,VALID,94.0045,VALID,0,VALID,22.9208,VALID,339,VALID,0.609375,
2009-06-06, 03:37:04,VALID,999.574,VALID,0,VALID,93.9664,VALID,0,VALID,22.9403,VALID,344,VALID,0.720312,
2009-06-06, 03:38:04,VALID,999.606,VALID,0,VALID,93.9435,VALID,0,VALID,22.9208,VALID,59,VALID,0.805078,
2009-06-06, 03:39:04,VALID,999.576,VALID,0,VALID,93.974,VALID,0,VALID,22.9208,VALID,59,VALID,0.712891,
2009-06-06, 03:40:04,VALID,999.604,VALID,0,VALID,93.974,VALID,0,VALID,22.9403,VALID,57,VALID,0.880859,
2009-06-06, 03:41:04,VALID,999.618,VALID,0,VALID,94.0198,VALID,0,VALID,22.9615,VALID,51,VALID,0.799609,
2009-06-06, 03:42:04,VALID,999.631,VALID,0,VALID,93.9817,VALID,0,VALID,22.9811,VALID,47,VALID,0.974219,
2009-06-06, 03:43:04,VALID,999.641,VALID,0,VALID,94.0045,VALID,0,VALID,22.9793,VALID,45,VALID,0.958203,
2009-06-06, 03:44:04,VALID,999.63,VALID,0,VALID,93.9588,VALID,0,VALID,22.9793,VALID,44,VALID,1.15508,
2009-06-06, 03:45:04,VALID,999.618,VALID,0,VALID,93.9283,VALID,0,VALID,22.9598,VALID,45,VALID,1.09375,
2009-06-06, 03:46:04,VALID,999.621,VALID,0,VALID,93.9664,VALID,0,VALID,22.9793,VALID,53,VALID,1.39414,
2009-06-06, 03:47:04,VALID,999.614,VALID,0,VALID,93.9359,VALID,0,VALID,22.9793,VALID,53,VALID,1.11641,